Starlink 6298

operational
NORAD ID: 56391 Int'l Des: 2023-061 Owner: SPXS Country: US Constellation: starlink
LEOCIRCULAR

About Starlink 6298

Description loading...

Live Position

Loading 3D Globe...

Upcoming Passes

Altitude History

Altitude vs Time

uPlot chart will show altitude changes over time

Two-Line Element Set

1 56391U 23061T 25339.32396390 -.00000619 00000-0 -30798-4 0 9992
2 56391 43.0042 349.8673 0000991 266.2670 93.8059 15.02529159142568
Epoch: Dec 5, 2025 • Age: 13 hours

Current Status

Altitude 559.1 km
Velocity 7.59 km/s
Sub-Earth Point 22.66°N, 11.88°W
Launch Date May 4, 2023
Age 2.5 years
Type internet

Technical Details

Classification Payload
Mass 305.00 kg
Dry Mass 290.00 kg
Total Mass 305.00 kg
Length 0.20 m
Diameter 2.80 m
Span 9.00 m
Shape Box + pan
Manufacturer SPXS
Bus Type Starlink
Phase Status In Orbit
Owner/State SPXS/US

Large Constellations

Loading constellations...